Tracking 27079 objects as of 23-Mar-2023
HD Live streaming from Space Station
objects crossing your sky now

SL-16 DEB

Track SL-16 DEB now!
10-day predictions


NORAD ID: 22494
Int'l Code: 1992-093GD
Perigee: 779.2 km
Apogee: 1,034.5 km
Inclination: 70.8 °
Period: 103.0 minutes
Semi major axis: 7277 km
RCS: 0.0111 m2 (small)
Launch date: December 25, 1992
Source: Commonwealth of Independent States (former USSR) (CIS)
Launch site: TYURATAM MISSILE AND SPACE COMPLEX (TTMTR)

Note: This is SATELLITE DEBRIS
Your satellite tracking list
Your tracking list is empty




NASA's NSSDC Master Catalog

Two Line Element Set (TLE):
1 22494U 92093GD  23080.35169395  .00008636  00000-0  53280-2 0  9991
2 22494  70.8231  37.6683 0175436   1.7902 158.6198 13.98296917522824
Source of the keplerian elements: AFSPC